| time (UTC) | temp F | wind direction | speed MPH | gust MPH | rain 1hr in | rain 24hr in | rain mn in | humidity % | barometer mb |
| 20260508052024 | 58 | 180 | 7.0 | 12.0 | 0.00 | 0.00 | 0.00 | 68 | 1008.6 |
| 20260508051023 | 58 | 180 | 6.0 | 9.0 | 0.00 | 0.00 | 0.00 | 68 | 1008.6 |
| 20260508050144 | 59 | 180 | 7.0 | 10.0 | 0.00 | 0.00 | 0.00 | 67 | 1008.6 |
| 20260508045102 | 59 | 180 | 5.0 | 10.0 | 0.00 | 0.00 | 0.00 | 67 | 1008.7 |
| 20260508044102 | 59 | 203 | 5.0 | 8.0 | 0.00 | 0.00 | 0.00 | 66 | 1008.8 |
| 20260508043102 | 60 | 180 | 6.0 | 9.0 | 0.00 | 0.00 | 0.00 | 65 | 1008.8 |
| 20260508042102 | 60 | 180 | 7.0 | 10.0 | 0.00 | 0.00 | 0.00 | 65 | 1008.9 |
| 20260508041102 | 60 | 180 | 6.0 | 8.0 | 0.00 | 0.00 | 0.00 | 65 | 1008.9 |
| 20260508040122 | 60 | 180 | 6.0 | 10.0 | 0.00 | 0.00 | 0.00 | 65 | 1008.9 |
| 20260508035101 | 60 | 180 | 8.0 | 11.0 | 0.00 | 0.00 | 0.00 | 64 | 1008.9 |
| 20260508034101 | 61 | 180 | 7.0 | 11.0 | 0.00 | 0.00 | 0.00 | 64 | 1009.0 |
| 20260508033102 | 61 | 158 | 4.0 | 8.0 | 0.00 | 0.00 | 0.00 | 65 | 1008.8 |
| 20260508032102 | 61 | 180 | 7.0 | 9.0 | 0.00 | 0.00 | 0.00 | 65 | 1008.8 |
| 20260508031101 | 61 | 158 | 5.0 | 8.0 | 0.00 | 0.00 | 0.00 | 65 | 1008.8 |
| 20260508025004 | 61 | 135 | 5.0 | 8.0 | 0.00 | 0.00 | 0.00 | 64 | 1008.5 |
| 20260508024003 | 61 | 158 | 6.0 | 8.0 | 0.00 | 0.00 | 0.00 | 64 | 1008.5 |
| 20260508023004 | 61 | 180 | 2.0 | 4.0 | 0.00 | 0.00 | 0.00 | 64 | 1008.4 |
| 20260508022004 | 61 | 225 | 3.0 | 7.0 | 0.00 | 0.00 | 0.00 | 64 | 1008.3 |
| 20260508021004 | 61 | 158 | 3.0 | 7.0 | 0.00 | 0.00 | 0.00 | 64 | 1008.3 |
| 20260508020009 | 62 | 180 | 5.0 | 8.0 | 0.00 | 0.00 | 0.00 | 62 | 1008.1 |
| 20260508015003 | 62 | 225 | 3.0 | 4.0 | 0.00 | 0.00 | 0.00 | 62 | 1008.1 |
| 20260508014003 | 63 | 158 | 2.0 | 6.0 | 0.00 | 0.00 | 0.00 | 60 | 1008.0 |
| 20260508013004 | 62 | 158 | 3.0 | 5.0 | 0.00 | 0.00 | 0.00 | 61 | 1007.8 |
| 20260508012004 | 63 | 158 | 2.0 | 4.0 | 0.00 | 0.00 | 0.00 | 61 | 1007.8 |
| 20260508011005 | 63 | 203 | 2.0 | 2.0 | 0.00 | 0.00 | 0.00 | 59 | 1007.8 |
| 20260508010008 | 64 | 158 | 3.0 | 5.0 | 0.00 | 0.00 | 0.00 | 57 | 1007.8 |
| 20260508005003 | 65 | 203 | 4.0 | 8.0 | 0.00 | 0.00 | 0.00 | 56 | 1007.8 |
| 20260508004003 | 65 | 203 | 1.0 | 3.0 | 0.00 | 0.00 | 0.00 | 55 | 1007.9 |
| 20260508003004 | 66 | 158 | 4.0 | 6.0 | 0.00 | 0.00 | 0.00 | 54 | 1007.8 |
| 20260508002003 | 67 | 180 | 5.0 | 7.0 | 0.00 | 0.00 | 0.00 | 53 | 1007.8 |
| 20260508001004 | 67 | 180 | 5.0 | 7.0 | 0.00 | 0.00 | 0.00 | 52 | 1007.9 |
| 20260508000005 | 68 | 203 | 8.0 | 11.0 | 0.00 | 0.00 | 0.00 | 50 | 1008.0 |
| 20260507235003 | 68 | 225 | 6.0 | 9.0 | 0.00 | 0.00 | 0.00 | 49 | 1008.1 |
| 20260507234023 | 68 | 203 | 6.0 | 10.0 | 0.00 | 0.00 | 0.00 | 50 | 1008.2 |
| 20260507233003 | 68 | 180 | 6.0 | 7.0 | 0.00 | 0.00 | 0.00 | 52 | 1008.3 |
| 20260507232003 | 68 | 225 | 6.0 | 9.0 | 0.00 | 0.00 | 0.00 | 53 | 1008.3 |
| 20260507231023 | 68 | 225 | 6.0 | 9.0 | 0.00 | 0.00 | 0.00 | 50 | 1008.3 |
| 20260507230009 | 67 | 225 | 5.0 | 8.0 | 0.00 | 0.00 | 0.00 | 51 | 1008.4 |
| 20260507225003 | 67 | 203 | 7.0 | 11.0 | 0.00 | 0.00 | 0.00 | 50 | 1008.5 |
| 20260507224024 | 67 | 225 | 5.0 | 7.0 | 0.00 | 0.00 | 0.00 | 55 | 1008.6 |
| 20260507223004 | 67 | 225 | 7.0 | 11.0 | 0.00 | 0.00 | 0.00 | 51 | 1008.7 |
| 20260507222003 | 67 | 203 | 10.0 | 13.0 | 0.00 | 0.00 | 0.00 | 51 | 1008.7 |
| 20260507221023 | 67 | 248 | 6.0 | 8.0 | 0.00 | 0.00 | 0.00 | 51 | 1008.9 |
| 20260507220005 | 68 | 203 | 9.0 | 15.0 | 0.00 | 0.00 | 0.00 | 53 | 1008.8 |
| 20260507215003 | 67 | 225 | 10.0 | 18.0 | 0.00 | 0.00 | 0.00 | 53 | 1008.9 |
| 20260507214044 | 68 | 225 | 10.0 | 16.0 | 0.00 | 0.00 | 0.00 | 50 | 1009.1 |
| 20260507213003 | 68 | 203 | 10.0 | 15.0 | 0.00 | 0.00 | 0.00 | 52 | 1009.4 |
| 20260507212003 | 68 | 248 | 8.0 | 11.0 | 0.00 | 0.00 | 0.00 | 52 | 1009.4 |
| 20260507211003 | 67 | 203 | 11.0 | 13.0 | 0.00 | 0.00 | 0.00 | 54 | 1009.4 |
| 20260507210005 | 67 | 203 | 12.0 | 19.0 | 0.00 | 0.00 | 0.00 | 52 | 1009.6 |
| 20260507205003 | 67 | 203 | 10.0 | 15.0 | 0.00 | 0.00 | 0.00 | 57 | 1009.8 |
| 20260507204003 | 67 | 225 | 8.0 | 13.0 | 0.00 | 0.00 | 0.00 | 53 | 1010.2 |
| 20260507203003 | 67 | 248 | 12.0 | 21.0 | 0.00 | 0.00 | 0.00 | 58 | 1010.4 |
| 20260507202023 | 67 | 203 | 9.0 | 14.0 | 0.00 | 0.00 | 0.00 | 58 | 1010.5 |
| 20260507201003 | 67 | 248 | 8.0 | 12.0 | 0.00 | 0.00 | 0.00 | 57 | 1010.7 |
| 20260507200004 | 66 | 203 | 6.0 | 12.0 | 0.00 | 0.00 | 0.00 | 58 | 1010.9 |
| 20260507195003 | 66 | 180 | 12.0 | 21.0 | 0.00 | 0.00 | 0.00 | 58 | 1010.9 |
| 20260507194003 | 65 | 248 | 13.0 | 17.0 | 0.00 | 0.00 | 0.00 | 60 | 1010.9 |
| 20260507193003 | 65 | 248 | 9.0 | 16.0 | 0.00 | 0.00 | 0.00 | 59 | 1011.1 |
| 20260507192003 | 64 | 225 | 10.0 | 15.0 | 0.00 | 0.00 | 0.00 | 59 | 1011.2 |
| 20260507191003 | 64 | 225 | 12.0 | 20.0 | 0.00 | 0.00 | 0.00 | 57 | 1011.4 |
| 20260507190005 | 64 | 225 | 11.0 | 14.0 | 0.00 | 0.00 | 0.00 | 60 | 1011.6 |
| 20260507185003 | 64 | 225 | 12.0 | 21.0 | 0.00 | 0.00 | 0.00 | 60 | 1011.6 |
| 20260507184003 | 63 | 270 | 8.0 | 11.0 | 0.00 | 0.00 | 0.00 | 63 | 1011.9 |
| 20260507183004 | 63 | 225 | 8.0 | 21.0 | 0.00 | 0.00 | 0.00 | 61 | 1012.1 |
| 20260507182023 | 64 | 225 | 8.0 | 13.0 | 0.00 | 0.00 | 0.00 | 63 | 1012.2 |
| 20260507181003 | 62 | 248 | 14.0 | 18.0 | 0.00 | 0.00 | 0.00 | 60 | 1012.3 |
| 20260507180003 | 62 | 225 | 12.0 | 16.0 | 0.00 | 0.00 | 0.00 | 62 | 1012.6 |
| 20260507175003 | 61 | 203 | 9.0 | 14.0 | 0.00 | 0.00 | 0.00 | 63 | 1012.7 |
| 20260507174003 | 61 | 225 | 9.0 | 16.0 | 0.00 | 0.00 | 0.00 | 65 | 1013.0 |
| 20260507173003 | 61 | 248 | 7.0 | 11.0 | 0.00 | 0.00 | 0.00 | 64 | 1012.8 |
| 20260507172003 | 62 | 248 | 10.0 | 18.0 | 0.00 | 0.00 | 0.00 | 64 | 1013.0 |
| 20260507171003 | 61 | 203 | 7.0 | 11.0 | 0.00 | 0.00 | 0.00 | 64 | 1013.2 |
| 20260507170008 | 61 | 225 | 12.0 | 17.0 | 0.00 | 0.00 | 0.00 | 63 | 1013.2 |
| 20260507165003 | 61 | 225 | 10.0 | 15.0 | 0.00 | 0.00 | 0.00 | 62 | 1013.5 |
| 20260507164003 | 60 | 248 | 9.0 | 13.0 | 0.00 | 0.00 | 0.00 | 64 | 1013.4 |
| 20260507163003 | 60 | 225 | 12.0 | 15.0 | 0.00 | 0.00 | 0.00 | 62 | 1013.4 |
| 20260507162002 | 60 | 225 | 10.0 | 14.0 | 0.00 | 0.00 | 0.00 | 64 | 1013.4 |
| 20260507161002 | 60 | 225 | 10.0 | 15.0 | 0.00 | 0.00 | 0.00 | 67 | 1013.4 |
| 20260507160005 | 59 | 203 | 12.0 | 15.0 | 0.00 | 0.00 | 0.00 | 66 | 1013.5 |
| 20260507155002 | 59 | 248 | 13.0 | 18.0 | 0.00 | 0.00 | 0.00 | 65 | 1013.6 |
| 20260507154003 | 59 | 225 | 12.0 | 16.0 | 0.00 | 0.00 | 0.00 | 65 | 1013.8 |
| 20260507153002 | 59 | 270 | 5.0 | 9.0 | 0.00 | 0.00 | 0.00 | 66 | 1013.9 |
| 20260507152002 | 58 | 225 | 10.0 | 16.0 | 0.00 | 0.00 | 0.00 | 65 | 1013.9 |
| 20260507151023 | 58 | 248 | 4.0 | 8.0 | 0.00 | 0.00 | 0.00 | 66 | 1014.0 |
| 20260507150027 | 58 | 203 | 8.0 | 12.0 | 0.00 | 0.00 | 0.00 | 67 | 1014.0 |
| 20260507145002 | 58 | 203 | 5.0 | 8.0 | 0.00 | 0.00 | 0.00 | 69 | 1014.1 |
| 20260507144002 | 57 | 225 | 9.0 | 13.0 | 0.00 | 0.00 | 0.00 | 69 | 1014.1 |
| 20260507143023 | 56 | 203 | 9.0 | 10.0 | 0.00 | 0.00 | 0.00 | 69 | 1014.1 |
| 20260507142002 | 56 | 225 | 10.0 | 14.0 | 0.00 | 0.00 | 0.00 | 71 | 1014.2 |
| 20260507141002 | 56 | 225 | 3.0 | 4.0 | 0.00 | 0.00 | 0.00 | 73 | 1014.3 |
| 20260507140008 | 55 | 248 | 8.0 | 11.0 | 0.00 | 0.00 | 0.00 | 72 | 1014.3 |
| 20260507135042 | 54 | 248 | 5.0 | 7.0 | 0.00 | 0.00 | 0.00 | 75 | 1014.4 |
| 20260507134002 | 53 | 248 | 5.0 | 7.0 | 0.00 | 0.00 | 0.00 | 75 | 1014.3 |
| 20260507133007 | 52 | 248 | 6.0 | 8.0 | 0.00 | 0.00 | 0.00 | 77 | 1014.5 |
| 20260507132002 | 52 | 248 | 5.0 | 6.0 | 0.00 | 0.00 | 0.00 | 76 | 1014.4 |
| 20260507131002 | 51 | 248 | 3.0 | 5.0 | 0.00 | 0.00 | 0.00 | 77 | 1014.5 |
| 20260507130007 | 50 | 203 | 4.0 | 7.0 | 0.00 | 0.00 | 0.00 | 77 | 1014.6 |
| 20260507125022 | 49 | 203 | 4.0 | 5.0 | 0.00 | 0.00 | 0.00 | 77 | 1014.8 |
| 20260507124023 | 49 | 225 | 5.0 | 7.0 | 0.00 | 0.00 | 0.00 | 78 | 1014.7 |
| 20260507123002 | 48 | 225 | 4.0 | 6.0 | 0.00 | 0.00 | 0.00 | 78 | 1014.6 |
| 20260507122002 | 47 | 203 | 4.0 | 6.0 | 0.00 | 0.00 | 0.00 | 79 | 1014.7 |
| 20260507121022 | 47 | 225 | 2.0 | 5.0 | 0.00 | 0.00 | 0.00 | 79 | 1014.6 |
| 20260507120022 | 46 | 203 | 3.0 | 5.0 | 0.00 | 0.00 | 0.00 | 80 | 1014.6 |
| 20260507115003 | 46 | 203 | 4.0 | 6.0 | 0.00 | 0.00 | 0.00 | 80 | 1014.5 |
| 20260507114002 | 45 | 225 | 2.0 | 3.0 | 0.00 | 0.00 | 0.00 | 81 | 1014.5 |
| 20260507113002 | 45 | 203 | 3.0 | 5.0 | 0.00 | 0.00 | 0.00 | 81 | 1014.4 |
| 20260507112003 | 45 | 203 | 4.0 | 5.0 | 0.00 | 0.00 | 0.00 | 80 | 1014.3 |
| 20260507111022 | 45 | 203 | 3.0 | 5.0 | 0.00 | 0.00 | 0.00 | 80 | 1014.3 |
| 20260507110007 | 45 | 203 | 2.0 | 4.0 | 0.00 | 0.00 | 0.00 | 79 | 1014.3 |
| 20260507105002 | 45 | 203 | 2.0 | 3.0 | 0.00 | 0.00 | 0.00 | 79 | 1014.4 |
| 20260507104002 | 45 | 203 | 3.0 | 4.0 | 0.00 | 0.00 | 0.00 | 79 | 1014.3 |
| 20260507103002 | 45 | 225 | 2.0 | 3.0 | 0.00 | 0.00 | 0.00 | 79 | 1014.4 |
| 20260507102002 | 45 | 225 | 3.0 | 4.0 | 0.00 | 0.00 | 0.00 | 79 | 1014.4 |
| 20260507101002 | 45 | 225 | 2.0 | 4.0 | 0.00 | 0.00 | 0.00 | 79 | 1014.2 |
| 20260507100009 | 45 | 225 | 3.0 | 4.0 | 0.00 | 0.00 | 0.00 | 79 | 1014.4 |
| 20260507095024 | 45 | 225 | 2.0 | 3.0 | 0.00 | 0.00 | 0.00 | 79 | 1014.5 |
| 20260507094004 | 45 | 203 | 2.0 | 3.0 | 0.00 | 0.00 | 0.00 | 79 | 1014.5 |
| 20260507093004 | 45 | 225 | 2.0 | 4.0 | 0.00 | 0.00 | 0.00 | 78 | 1014.6 |
| 20260507092003 | 45 | 225 | 3.0 | 4.0 | 0.00 | 0.00 | 0.00 | 77 | 1014.6 |
| 20260507091003 | 45 | 248 | 4.0 | 4.0 | 0.00 | 0.00 | 0.00 | 77 | 1014.6 |
| 20260507090009 | 46 | 248 | 2.0 | 3.0 | 0.00 | 0.00 | 0.00 | 76 | 1014.6 |
| 20260507085003 | 46 | 203 | 2.0 | 5.0 | 0.00 | 0.00 | 0.00 | 75 | 1014.6 |
| 20260507084024 | 46 | 225 | 2.0 | 3.0 | 0.00 | 0.00 | 0.00 | 74 | 1014.6 |
| 20260507083024 | 46 | 248 | 3.0 | 6.0 | 0.00 | 0.00 | 0.00 | 74 | 1014.8 |
| 20260507082003 | 46 | 248 | 2.0 | 3.0 | 0.00 | 0.00 | 0.00 | 75 | 1014.8 |
| 20260507081003 | 46 | 248 | 2.0 | 4.0 | 0.00 | 0.00 | 0.00 | 75 | 1014.7 |
| 20260507080027 | 47 | 225 | 1.0 | 1.0 | 0.00 | 0.00 | 0.00 | 75 | 1014.6 |
| 20260507075003 | 46 | 225 | 1.0 | 2.0 | 0.00 | 0.00 | 0.00 | 76 | 1014.5 |
| 20260507074003 | 46 | 0.0 | 1.0 | 0.00 | 0.00 | 0.00 | 78 | 1014.5 | |
| 20260507073004 | 46 | 225 | 1.0 | 2.0 | 0.00 | 0.00 | 0.00 | 78 | 1014.6 |
| 20260507072003 | 47 | 225 | 1.0 | 1.0 | 0.00 | 0.00 | 0.00 | 77 | 1014.7 |
| 20260507071004 | 48 | 225 | 2.0 | 3.0 | 0.00 | 0.00 | 0.00 | 76 | 1014.8 |
| 20260507070012 | 48 | 225 | 1.0 | 2.0 | 0.00 | 0.00 | 0.00 | 75 | 1015.1 |
| 20260507065003 | 48 | 225 | 2.0 | 3.0 | 0.00 | 0.02 | 0.00 | 76 | 1015.2 |
| 20260507064003 | 48 | 225 | 1.0 | 2.0 | 0.00 | 0.02 | 0.00 | 75 | 1015.2 |
| 20260507063023 | 48 | 225 | 2.0 | 3.0 | 0.00 | 0.02 | 0.00 | 75 | 1015.3 |
| 20260507062003 | 48 | 203 | 1.0 | 2.0 | 0.00 | 0.02 | 0.00 | 78 | 1015.2 |
| 20260507061003 | 48 | 0.0 | 1.0 | 0.00 | 0.02 | 0.00 | 79 | 1015.2 | |
| 20260507060008 | 48 | 203 | 1.0 | 2.0 | 0.00 | 0.02 | 0.00 | 77 | 1015.2 |
| 20260507055023 | 49 | 225 | 2.0 | 2.0 | 0.00 | 0.02 | 0.00 | 77 | 1015.3 |
| 20260507054023 | 48 | 225 | 1.0 | 1.0 | 0.00 | 0.02 | 0.00 | 77 | 1015.2 |
| 20260507053005 | 48 | 225 | 1.0 | 2.0 | 0.00 | 0.02 | 0.00 | 77 | 1015.3 |